TimeCDT,TemperatureF,Dew PointF,Humidity,Sea Level PressureIn,VisibilityMPH,Wind Direction,Wind SpeedMPH,Gust SpeedMPH,PrecipitationIn,Events,Conditions,WindDirDegrees,DateUTC
12:30 AM,77.0,73.4,89,29.81,4.0,NNW,4.6,18.4,0.06,Rain-Thunderstorm,Thunderstorms and Rain,340,2013-06-29 05:30:00
12:39 AM,75.2,73.4,94,29.82,10.0,NE,12.7,20.7,0.06,Thunderstorm,Thunderstorm,50,2013-06-29 05:39:00
12:53 AM,73.9,70.0,87,29.80,10.0,East,8.1,-,0.06,Thunderstorm,Thunderstorm,80,2013-06-29 05:53:00
1:02 AM,73.4,71.6,94,29.81,10.0,ENE,6.9,-,N/A,Thunderstorm,Thunderstorm,70,2013-06-29 06:02:00
1:13 AM,73.4,69.8,88,29.81,10.0,NNE,5.8,-,N/A,,Overcast,30,2013-06-29 06:13:00
1:35 AM,73.4,69.8,88,29.78,10.0,East,4.6,-,N/A,,Overcast,100,2013-06-29 06:35:00
1:42 AM,73.4,71.6,94,29.79,10.0,Calm,Calm,-,N/A,Thunderstorm,Overcast,0,2013-06-29 06:42:00
1:53 AM,73.9,71.1,91,29.78,10.0,ENE,5.8,-,N/A,,Overcast,60,2013-06-29 06:53:00
2:37 AM,73.4,71.6,94,29.76,10.0,Calm,Calm,-,N/A,Thunderstorm,Mostly Cloudy,0,2013-06-29 07:37:00
2:53 AM,73.9,71.1,91,29.75,10.0,North,4.6,-,N/A,,Mostly Cloudy,350,2013-06-29 07:53:00
3:23 AM,73.4,71.6,94,29.78,10.0,North,4.6,-,N/A,,Mostly Cloudy,10,2013-06-29 08:23:00
3:39 AM,73.4,69.8,88,29.78,10.0,NE,4.6,-,N/A,,Mostly Cloudy,50,2013-06-29 08:39:00
3:43 AM,73.4,69.8,88,29.79,10.0,Calm,Calm,-,N/A,Thunderstorm,Mostly Cloudy,0,2013-06-29 08:43:00
3:53 AM,73.9,70.0,87,29.80,10.0,Calm,Calm,-,N/A,Thunderstorm,Mostly Cloudy,0,2013-06-29 08:53:00
4:04 AM,73.4,69.8,88,29.81,10.0,Calm,Calm,-,N/A,,Mostly Cloudy,0,2013-06-29 09:04:00
4:27 AM,73.4,69.8,88,29.80,5.0,Variable,3.5,-,0.03,Rain-Thunderstorm,Thunderstorms and Rain,0,2013-06-29 09:27:00
4:31 AM,73.4,69.8,88,29.80,2.0,South,4.6,-,0.08,Rain-Thunderstorm,Heavy Thunderstorms and Rain,170,2013-06-29 09:31:00
4:38 AM,73.4,69.8,88,29.79,1.5,Calm,Calm,-,0.14,Rain-Thunderstorm,Heavy Thunderstorms and Rain,0,2013-06-29 09:38:00
4:43 AM,73.4,69.8,88,29.78,3.0,ESE,3.5,-,0.14,Rain-Thunderstorm,Light Thunderstorms and Rain,110,2013-06-29 09:43:00
4:53 AM,72.0,70.0,93,29.77,10.0,East,6.9,-,0.14,Rain-Thunderstorm,Light Thunderstorms and Rain,90,2013-06-29 09:53:00
5:19 AM,71.6,69.8,94,29.78,10.0,ENE,4.6,-,0.00,,Partly Cloudy,70,2013-06-29 10:19:00
5:53 AM,73.0,71.1,93,29.78,8.0,SE,3.5,-,0.00,Rain,Light Rain,130,2013-06-29 10:53:00
6:40 AM,73.4,71.6,94,29.80,9.0,SSE,5.8,-,0.00,,Mostly Cloudy,160,2013-06-29 11:40:00
6:53 AM,73.9,72.0,93,29.78,7.0,South,3.5,-,0.00,,Mostly Cloudy,190,2013-06-29 11:53:00
7:03 AM,73.4,71.6,94,29.80,7.0,SW,3.5,-,N/A,,Overcast,220,2013-06-29 12:03:00
7:39 AM,75.2,73.4,94,29.80,7.0,SSW,5.8,-,N/A,,Scattered Clouds,210,2013-06-29 12:39:00
7:53 AM,75.9,73.0,91,29.80,9.0,SSW,5.8,-,N/A,,Scattered Clouds,210,2013-06-29 12:53:00
8:53 AM,78.1,73.9,87,29.80,10.0,SSW,8.1,-,N/A,,Clear,210,2013-06-29 13:53:00
9:53 AM,80.1,73.9,81,29.78,10.0,WSW,6.9,-,N/A,,Clear,250,2013-06-29 14:53:00
10:53 AM,82.0,72.0,71,29.79,10.0,SW,8.1,-,N/A,,Scattered Clouds,220,2013-06-29 15:53:00
11:53 AM,84.9,71.1,63,29.79,10.0,West,8.1,-,N/A,,Partly Cloudy,260,2013-06-29 16:53:00
12:53 PM,86.0,71.1,61,29.78,10.0,Variable,6.9,-,N/A,,Scattered Clouds,0,2013-06-29 17:53:00
1:53 PM,87.1,71.1,59,29.76,10.0,SW,5.8,-,N/A,,Clear,230,2013-06-29 18:53:00
2:53 PM,87.1,72.0,61,29.75,10.0,Variable,5.8,-,N/A,,Clear,0,2013-06-29 19:53:00
3:53 PM,87.1,72.0,61,29.73,10.0,Variable,3.5,-,N/A,,Clear,0,2013-06-29 20:53:00
4:53 PM,89.1,73.0,59,29.71,10.0,South,11.5,-,N/A,,Partly Cloudy,190,2013-06-29 21:53:00
5:53 PM,86.0,73.0,65,29.70,10.0,SSE,4.6,-,N/A,,Clear,160,2013-06-29 22:53:00
6:53 PM,84.0,73.9,72,29.70,10.0,South,4.6,-,N/A,,Clear,170,2013-06-29 23:53:00
7:53 PM,82.0,73.9,76,29.71,10.0,South,8.1,-,N/A,,Clear,190,2013-06-30 00:53:00
8:53 PM,81.0,73.0,77,29.74,10.0,West,3.5,-,N/A,,Clear,260,2013-06-30 01:53:00
9:53 PM,80.1,73.9,81,29.77,10.0,North,5.8,-,N/A,,Mostly Cloudy,350,2013-06-30 02:53:00
10:12 PM,78.8,71.6,78,29.77,10.0,Calm,Calm,-,N/A,,Overcast,0,2013-06-30 03:12:00
10:31 PM,78.8,69.8,74,29.76,10.0,Calm,Calm,-,N/A,,Scattered Clouds,0,2013-06-30 03:31:00
10:53 PM,77.0,70.0,79,29.76,10.0,North,4.6,-,N/A,,Scattered Clouds,10,2013-06-30 03:53:00
11:53 PM,73.9,70.0,87,29.76,10.0,East,3.5,-,N/A,,Partly Cloudy,90,2013-06-30 04:53:00